Regional Weather Roundup
Issued by NWS

Home | Current Version | Previous Version | Text Only | Print | Product List | Glossary Off
Versions: 1 2 3 4 5 6 7 8 9 10 11 12 13 14 15 16 17 18 19 20 21 22 23 24 25 26 27 28 29 30 31 32 33 34 35 36 37 38 39 40 41 42 43 44 45 46 47 48 49 50

000
ASUS43 KDTX 230010
RWRMI
MICHIGAN HOURLY REGIONAL WEATHER ROUNDUP
NATIONAL WEATHER SERVICE DETROIT/PONTIAC MI
800 PM EDT FRI MAY 22 2015

NOTE: "FAIR" INDICATES FEW OR NO CLOUDS BELOW 12,000 FEET WITH NO
SIGNIFICANT WEATHER AND/OR OBSTRUCTION TO VISIBILITY.

MIZ047>049-052>055-059>063-066>070-074>076-081>083-230100-
SOUTHEAST LOWER MICHIGAN

CITY           SKY/WX    TMP DP  RH WIND       PRES   REMARKS
ADRIAN         CLEAR     66  32  28 N8        30.23S
6HR MIN TEMP:  64; 6HR MAX TEMP:  69;

ALMA           CLEAR     62  26  25 NW8       30.26R
ANN ARBOR      CLEAR     64  30  27 N8        30.23S
BAD AXE        CLEAR     46  23  40 E7        30.29R
CARO           CLEAR     58  26  29 NW10      30.25R
DETROIT CITY   CLEAR     57  34  41 E12       30.26R
6HR MIN TEMP:  57; 6HR MAX TEMP:  66;

DETROIT        PTCLDY    65  31  28 W9        30.24S
6HR MIN TEMP:  65; 6HR MAX TEMP:  68;

FLINT          CLEAR     64  28  25 N8        30.24R
6HR MIN TEMP:  62; 6HR MAX TEMP:  68;

GROSSE ILE     CLEAR     64  25  22 NW5       30.23R
HILLSDALE      CLEAR     65  30  27 NW7       30.23S
6HR MIN TEMP:  65; 6HR MAX TEMP:  69;

HOWELL         CLEAR     63  28  26 NW7       30.23S

CITY           SKY/WX    TMP DP  RH WIND       PRES   REMARKS
JACKSON        CLEAR     62  31  31 N6        30.23S
6HR MIN TEMP:  62; 6HR MAX TEMP:  67;

LAMBERTVILLE   CLEAR     64  32  29 N6        30.23S
LANSING        CLEAR     63  29  27 NW8       30.24S
6HR MIN TEMP:  62; 6HR MAX TEMP:  67;

LAPEER         FAIR      51  28  41 E8        30.27R
MASON          CLEAR     61  31  31 NW6       30.24S
MONROE         CLEAR     64  30  27 N5        30.22S
MT. CLEMENS    PTCLDY    52  30  41 NE12      30.25R
6HR MIN TEMP:  52; 6HR MAX TEMP:  64;

PONTIAC        PTCLDY    63  27  25 NW9       30.24R
6HR MIN TEMP:  60; 6HR MAX TEMP:  65;

PORT HOPE        N/A     45  27  49 E7        30.27S
6HR MIN TEMP:  45; 6HR MAX TEMP:  46;

PORT HURON     CLEAR     45  27  49 NE8       30.30R
TRI CITIES     CLEAR     59  36  42 NE10      30.27R
6HR MIN TEMP:  59; 6HR MAX TEMP:  66;

MIDLAND        FAIR      61  21  22 N7        30.26R
TROY           CLEAR     65  26  23 NE13      30.27R
SAGINAW HB     CLEAR     61  28  29 N9        30.26R
$$
MIZ043>046-050>051-056>058-064>065-071>073-077>080-230100-
SOUTHWEST LOWER MICHIGAN

CITY           SKY/WX    TMP DP  RH WIND       PRES   REMARKS
BATTLE CREEK   PTCLDY    62  30  29 NW8       30.26R
6HR MIN TEMP:  62; 6HR MAX TEMP:  69;

BENTON HARBOR  PTSUNNY   56  29  35 CALM      30.29R
6HR MIN TEMP:  56; 6HR MAX TEMP:  60;

BIG RAPIDS     SUNNY     59  13  16 W10       30.27R
6HR MIN TEMP:  59; 6HR MAX TEMP:  64;

COLDWATER      PTCLDY    62  27  27 NW10G16   30.25R
6HR MIN TEMP:  62; 6HR MAX TEMP:  67;

FREMONT        FAIR      59  16  18 N7        30.27S
HOLLAND        MOSUNNY   60  28  29 NW7       30.27F
6HR MIN TEMP:  60; 6HR MAX TEMP:  63;

GRAND RAPIDS   PTSUNNY   63  26  24 NW13      30.25F
6HR MIN TEMP:  63; 6HR MAX TEMP:  68;

IONIA          FAIR      63  26  24 NW8       30.24S
KALAMAZOO      PTCLDY    61  28  28 N9        30.26S
6HR MIN TEMP:  61; 6HR MAX TEMP:  70;

LUDINGTON      SUNNY     56  21  25 W5        30.27S
6HR MIN TEMP:  56; 6HR MAX TEMP:  61;

MARSHALL       PTCLDY    62  30  29 NW6       30.24R
MOUNT PLEASANT CLEAR     61  24  24 NW8       30.26R
6HR MIN TEMP:  61; 6HR MAX TEMP:  66;

MUSKEGON       PTSUNNY   58  26  29 NW5       30.27F
6HR MIN TEMP:  58; 6HR MAX TEMP:  63;

SOUTH HAVEN    MOSUNNY   58  27  31 CALM      30.28R
$$
MIZ016>042-230100-
NORTHERN LOWER MICHIGAN

CITY           SKY/WX    TMP DP  RH WIND       PRES   REMARKS
ALPENA         CLEAR     54  25  32 N7        30.26R
6HR MIN TEMP:  53; 6HR MAX TEMP:  57;

BEAVER ISLAND  SUNNY     52  22  31 S8        30.27S
6HR MIN TEMP:  52; 6HR MAX TEMP:  55;

BELLAIRE       SUNNY     56  20  25 W3        30.28R
6HR MIN TEMP:  55; 6HR MAX TEMP:  57;

CADILLAC       SUNNY     57  23  26 CALM      30.26S
CHARLEVOIX     SUNNY     54  25  33 W3        30.30S
6HR MIN TEMP:  48; 6HR MAX TEMP:  55;

FRANKFORT      SUNNY     60  16  18 NE3       30.26S
GAYLORD        SUNNY     53  18  25 VRB5      30.26S
6HR MIN TEMP:  51; 6HR MAX TEMP:  54;

GRAYLING       SUNNY     55  19  24 W5        30.28R
HARBOR SPRINGS SUNNY     51  26  37 SW3       30.27S
HOUGHTON LAKE  CLEAR     55  16  21 NW12      30.28R
6HR MIN TEMP:  55; 6HR MAX TEMP:  60;

MANISTEE       SUNNY     59  23  25 CALM      30.28R
OSCODA         CLEAR     47  26  43 SE6       30.27R
PELLSTON       SUNNY     54  22  28 NW7       30.27R
6HR MIN TEMP:  53; 6HR MAX TEMP:  57;

ROGERS CITY    CLEAR     49  28  42 NW6       30.27S
TRAVERSE CITY  MOSUNNY   54  25  32 NE7       30.28R
6HR MIN TEMP:  52; 6HR MAX TEMP:  57;

$$
MIZ007>008-015-230100-
EASTERN UPPER MICHIGAN

CITY           SKY/WX    TMP DP  RH WIND       PRES   REMARKS
KINROSS        SUNNY     46  18  31 NW10      30.26R
6HR MIN TEMP:  45; 6HR MAX TEMP:  48;

MACKINAC ISLAN SUNNY     48  30  49 W8        30.26R
6HR MIN TEMP:  48; 6HR MAX TEMP:  55;

NEWBERRY       SUNNY     51  21  30 N9        30.26R
S. S. MARIE    SUNNY     44  21  40 NW7       30.25S
6HR MIN TEMP:  44; 6HR MAX TEMP:  48;

MUNISING         N/A     49  33  54 CALM      30.26S
6HR MIN TEMP:  45; 6HR MAX TEMP:  50;

$$
MIZ004>006-011>014-085-230100-
CENTRAL UPPER MICHIGAN

CITY           SKY/WX    TMP DP  RH WIND       PRES   REMARKS
MANISTIQUE     SUNNY     47  32  55 S9        30.26S
6HR MIN TEMP:  47; 6HR MAX TEMP:  54;

ESCANABA       SUNNY     52  32  46 S8        30.26R
6HR MIN TEMP:  52; 6HR MAX TEMP:  54;

MENOMINEE      SUNNY     54  30  40 SE10      30.24S
6HR MIN TEMP:  54; 6HR MAX TEMP:  59;

SAWYER-GWINN   SUNNY     54  21  28 E5        30.25R
$$
MIZ001>003-009>011-084-230100-
WESTERN UPPER MICHIGAN

CITY           SKY/WX    TMP DP  RH WIND       PRES   REMARKS
IRON MOUNTAIN  SUNNY     63  31  30 S10G20    30.20R
6HR MIN TEMP:  62; 6HR MAX TEMP:  69;

HOUGHTON       SUNNY     50  27  40 E6        30.21F
6HR MIN TEMP:  50; 6HR MAX TEMP:  57;

COPPER HARBOR    N/A     47  22  37 SW14G23   30.21F
6HR MIN TEMP:  47; 6HR MAX TEMP:  53;

IRONWOOD       SUNNY     66  28  24 SW3       30.16F
6HR MIN TEMP:  59; 6HR MAX TEMP:  66;

$$

ABBREVIATIONS USED IN REMARKS
   TC - TEMPERATURE IN CELSIUS
  WCI - WIND CHILL INDEX
   HX - HEAT INDEX
  VSB - VISIBILITY




USA.gov is the U.S. government's official web portal to all federal, state and local government web resources and services.